When you browse on this site, cookies collect data to enhance your experience and personalize the content and advertising you see.
Visit our Privacy Policy to learn more. By continuing to use the site, you agree to this use of cookies and data.
  • In United Kingdom
  • List of Countries
  • For 7 days
  • Water Temperature
  • Weather Map
  • Weather Widgets
  • user-avatar
    Login

    Hourly Weather Ganne Tiqwa

    Today, 16 September, Monday

    Time Temperature Precipitation Wind Pressure Humidity
    00:00 +25°C° 0 mm 2 mps 751 mmHg 79%
    01:00 +25°C° 0 mm 2 mps 751 mmHg 79%
    02:00 +25°C° 0 mm 2 mps 751 mmHg 79%
    03:00 +24°C° 0 mm 2 mps 752 mmHg 80%
    04:00 +24°C° 0 mm 2 mps 752 mmHg 81%
    05:00 +24°C° 0 mm 2 mps 752 mmHg 82%
    06:00 +25°C° 0 mm 3 mps 752 mmHg 76%
    07:00 +27°C° 0 mm 3 mps 752 mmHg 70%
    08:00 +28°C° 0 mm 3 mps 753 mmHg 65%
    09:00 +29°C° 0 mm 3 mps 753 mmHg 60%
    10:00 +30°C° 0 mm 4 mps 753 mmHg 55%
    11:00 +32°C° 0 mm 4 mps 753 mmHg 50%
    12:00 +32°C° 0 mm 4 mps 752 mmHg 51%
    13:00 +32°C° 0 mm 5 mps 752 mmHg 51%
    14:00 +32°C° 0 mm 5 mps 752 mmHg 51%
    15:00 +32°C° 0 mm 5 mps 752 mmHg 54%
    16:00 +30°C° 0 mm 4 mps 752 mmHg 56%
    17:00 +29°C° 0 mm 4 mps 752 mmHg 58%
    18:00 +28°C° 0 mm 3 mps 752 mmHg 63%
    19:00 +27°C° 0 mm 3 mps 752 mmHg 68%
    20:00 +26°C° 0 mm 2 mps 753 mmHg 73%
    21:00 +25°C° 0 mm 2 mps 753 mmHg 75%
    22:00 +25°C° 0 mm 2 mps 753 mmHg 77%
    23:00 +24°C° 0 mm 1 mps 753 mmHg 78%

    Tomorrow, 17 September, Tuesday

    Time Temperature Precipitation Wind Pressure Humidity
    00:00 +24°C° 0 mm 1 mps 752 mmHg 78%
    01:00 +24°C° 0 mm 1 mps 752 mmHg 78%
    02:00 +24°C° 0 mm 1 mps 752 mmHg 78%
    03:00 +24°C° 0 mm 1 mps 753 mmHg 79%
    04:00 +24°C° 0 mm 1 mps 753 mmHg 80%
    05:00 +23°C° 0 mm 1 mps 753 mmHg 81%
    06:00 +25°C° 0 mm 1 mps 753 mmHg 74%
    07:00 +27°C° 0 mm 1 mps 754 mmHg 68%
    08:00 +28°C° 0 mm 1 mps 754 mmHg 62%
    09:00 +29°C° 0 mm 2 mps 754 mmHg 57%
    10:00 +31°C° 0 mm 3 mps 754 mmHg 51%
    11:00 +33°C° 0 mm 4 mps 754 mmHg 46%
    12:00 +33°C° 0 mm 5 mps 753 mmHg 46%
    13:00 +33°C° 0 mm 5 mps 753 mmHg 45%
    14:00 +33°C° 0 mm 6 mps 752 mmHg 44%
    15:00 +32°C° 0 mm 6 mps 752 mmHg 47%
    16:00 +30°C° 0 mm 6 mps 752 mmHg 50%
    17:00 +29°C° 0 mm 6 mps 752 mmHg 54%
    18:00 +28°C° 0 mm 6 mps 753 mmHg 60%
    19:00 +27°C° 0 mm 5 mps 753 mmHg 65%
    20:00 +26°C° 0 mm 4 mps 753 mmHg 71%
    21:00 +26°C° 0 mm 4 mps 753 mmHg 74%
    22:00 +25°C° 0 mm 3 mps 753 mmHg 76%
    23:00 +25°C° 0 mm 3 mps 753 mmHg 79%

    Day after tomorrow, 18 September, Wednesday

    Time Temperature Precipitation Wind Pressure Humidity
    00:00 +24°C° 0 mm 2 mps 753 mmHg 79%
    01:00 +24°C° 0 mm 2 mps 753 mmHg 79%
    02:00 +23°C° 0 mm 2 mps 753 mmHg 79%
    03:00 +23°C° 0 mm 2 mps 753 mmHg 78%
    04:00 +23°C° 0 mm 1 mps 753 mmHg 78%
    05:00 +22°C° 0 mm 1 mps 753 mmHg 77%
    06:00 +24°C° 0 mm 1 mps 753 mmHg 69%
    07:00 +26°C° 0 mm 2 mps 754 mmHg 60%
    08:00 +28°C° 0 mm 2 mps 754 mmHg 51%
    09:00 +30°C° 0 mm 3 mps 754 mmHg 47%
    10:00 +31°C° 0 mm 3 mps 754 mmHg 42%
    11:00 +34°C° 0 mm 4 mps 753 mmHg 37%
    12:00 +34°C° 0 mm 5 mps 753 mmHg 41%
    13:00 +34°C° 0 mm 6 mps 752 mmHg 44%
    14:00 +34°C° 0 mm 7 mps 752 mmHg 47%
    15:00 +33°C° 0 mm 7 mps 752 mmHg 52%
    16:00 +32°C° 0 mm 6 mps 752 mmHg 57%
    17:00 +29°C° 0 mm 6 mps 752 mmHg 62%
    18:00 +28°C° 0 mm 5 mps 752 mmHg 68%
    19:00 +27°C° 0 mm 4 mps 752 mmHg 74%
    20:00 +26°C° 0 mm 3 mps 753 mmHg 80%
    21:00 +26°C° 0 mm 2 mps 753 mmHg 80%
    22:00 +25°C° 0 mm 2 mps 753 mmHg 80%
    23:00 +25°C° 0 mm 2 mps 753 mmHg 81%

    19 September, Thursday

    Time Temperature Precipitation Wind Pressure Humidity
    00:00 +25°C° 0 mm 2 mps 753 mmHg 81%
    01:00 +25°C° 0 mm 1 mps 753 mmHg 81%
    02:00 +24°C° 0 mm 1 mps 752 mmHg 81%
    03:00 +24°C° 0 mm 1 mps 752 mmHg 82%
    04:00 +24°C° 0 mm 1 mps 752 mmHg 83%
    05:00 +24°C° 0 mm 1 mps 752 mmHg 83%
    06:00 +25°C° 0 mm 1 mps 753 mmHg 77%
    07:00 +27°C° 0 mm 1 mps 753 mmHg 71%
    08:00 +28°C° 0 mm 1 mps 753 mmHg 65%
    09:00 +30°C° 0 mm 2 mps 753 mmHg 59%
    10:00 +31°C° 0 mm 3 mps 753 mmHg 52%
    11:00 +34°C° 0 mm 4 mps 753 mmHg 46%
    12:00 +34°C° 0 mm 5 mps 752 mmHg 48%
    13:00 +33°C° 0 mm 5 mps 752 mmHg 49%
    14:00 +33°C° 0 mm 6 mps 751 mmHg 50%
    15:00 +32°C° 0 mm 6 mps 751 mmHg 54%
    16:00 +30°C° 0 mm 5 mps 751 mmHg 58%
    17:00 +30°C° 0 mm 5 mps 751 mmHg 61%
    18:00 +28°C° 0 mm 4 mps 751 mmHg 67%
    19:00 +27°C° 0 mm 3 mps 752 mmHg 74%
    20:00 +26°C° 0 mm 2 mps 752 mmHg 80%
    21:00 +26°C° 0 mm 2 mps 752 mmHg 81%
    22:00 +25°C° 0 mm 2 mps 752 mmHg 82%
    23:00 +25°C° 0 mm 1 mps 752 mmHg 83%

    20 September, Friday

    Time Temperature Precipitation Wind Pressure Humidity
    00:00 +25°C° 0 mm 1 mps 752 mmHg 83%
    01:00 +25°C° 0 mm 1 mps 752 mmHg 83%
    02:00 +24°C° 0 mm 1 mps 751 mmHg 82%
    03:00 +24°C° 0 mm 1 mps 751 mmHg 83%
    04:00 +24°C° 0 mm 1 mps 751 mmHg 83%
    05:00 +24°C° 0 mm 1 mps 751 mmHg 83%
    06:00 +25°C° 0 mm 1 mps 751 mmHg 76%
    07:00 +27°C° 0 mm 1 mps 751 mmHg 69%
    08:00 +28°C° 0 mm 1 mps 752 mmHg 62%
    09:00 +29°C° 0 mm 2 mps 752 mmHg 57%
    10:00 +30°C° 0 mm 3 mps 751 mmHg 52%
    11:00 +33°C° 0 mm 4 mps 751 mmHg 46%
    12:00 +32°C° 0 mm 4 mps 751 mmHg 47%
    13:00 +32°C° 0 mm 5 mps 751 mmHg 48%
    14:00 +32°C° 0 mm 5 mps 750 mmHg 49%
    15:00 +30°C° 0 mm 5 mps 750 mmHg 52%
    16:00 +29°C° 0 mm 5 mps 750 mmHg 55%
    17:00 +28°C° 0 mm 5 mps 750 mmHg 58%
    18:00 +27°C° 0 mm 4 mps 751 mmHg 63%
    19:00 +26°C° 0 mm 3 mps 751 mmHg 67%
    20:00 +25°C° 0 mm 2 mps 752 mmHg 72%
    21:00 +25°C° 0 mm 2 mps 752 mmHg 73%
    22:00 +24°C° 0 mm 1 mps 752 mmHg 74%
    23:00 +24°C° 0 mm 1 mps 752 mmHg 75%

    21 September, Saturday

    Time Temperature Precipitation Wind Pressure Humidity
    00:00 +23°C° 0 mm 1 mps 752 mmHg 75%
    01:00 +23°C° 0 mm 1 mps 751 mmHg 75%
    02:00 +23°C° 0 mm 1 mps 751 mmHg 75%
    03:00 +23°C° 0 mm 1 mps 751 mmHg 75%
    04:00 +23°C° 0 mm 1 mps 751 mmHg 75%
    05:00 +22°C° 0 mm 1 mps 752 mmHg 75%
    06:00 +24°C° 0 mm 1 mps 752 mmHg 69%
    07:00 +25°C° 0 mm 1 mps 752 mmHg 64%
    08:00 +27°C° 0 mm 1 mps 752 mmHg 58%
    09:00 +28°C° 0 mm 2 mps 752 mmHg 53%
    10:00 +29°C° 0 mm 2 mps 752 mmHg 49%
    11:00 +30°C° 0 mm 3 mps 752 mmHg 44%
    12:00 +30°C° 0 mm 4 mps 752 mmHg 45%
    13:00 +30°C° 0 mm 4 mps 751 mmHg 47%
    14:00 +30°C° 0 mm 5 mps 751 mmHg 49%
    15:00 +29°C° 0 mm 5 mps 751 mmHg 52%
    16:00 +29°C° 0 mm 4 mps 751 mmHg 56%
    17:00 +28°C° 0 mm 4 mps 751 mmHg 60%
    18:00 +27°C° 0 mm 3 mps 751 mmHg 65%
    19:00 +25°C° 0 mm 2 mps 751 mmHg 71%
    20:00 +24°C° 0 mm 1 mps 752 mmHg 77%
    21:00 +24°C° 0 mm 1 mps 751 mmHg 77%
    22:00 +24°C° 0 mm 1 mps 751 mmHg 77%
    23:00 +23°C° 0 mm 1 mps 751 mmHg 77%
    Show more